SKYSAT-B

Last updated on Fri Oct 04 2024 00:02:25 GMT+0000 (Coordinated Universal Time)

1 40072U 14037D 24277.50401132 .00006518 00000+0 77380-3 0 9993 2 40072 98.3268 194.0577 0007211 123.5527 236.6376 14.84815466553597
UTC large
Height (km)
Speed (km/s)
/
Latitude / Longitude
Inclination (degrees)
Orbital Period (minutes)
Azimuth
Elevation
Range (km)
Doppler Factor

Next 0 passes for location: London (51.5072 / 0.1276)

Sorry there are no passes over London.